Showing default

TIANMU-1 07, 57399

Orbit data source: Space-Track

TIANMU-1 07, 57399 is a payload satellite owned by Hangtian Tianmu (CN) in SSO that was launched on Thu, 20 Jul 2023 UTC via a KUAIZHOU-1A launch vehicle from the Jiuquan Satellite Launch Center, China (JSC). Payload-class satellites include a variety of spacecraft equipped with specific instruments for various scientific and technological missions. These include communications satellites like Starlink; space stations such as the ISS; scientific satellites like the Hubble; Earth observation satellites from companies like Planet Labs, Umbra, and HawkEye 360; GPS; miniature CubeSats for education and research; and military/defense satellites.

Loading next visibility...
Identifier
57399, 2023-101A
Orbit
SSO
Country
Flag of CNCN / PRC
Related business
Manufacturer
Hangtian Tianmu
Mission
Operational Commercial Weather
Bus & Motor
TIANMU, Unknown motor
Mass
50 kg wet, ~50 kg dry
Launch date (UTC)
2023-07-20 (3 years ago)
Launch vehicle
KUAIZHOU-1A
Launch site
Jiuquan Satellite Launch Center, China (JSC)
Object type
Payload
Rocket body
Debris
Shape & HBR
Box, 0.8 m
Radar Cross Section
2.000 m², Large (>1 m²)

Expand to show TLE details & history
Last TLE update: 23 hours ago

TLE from 23 hours ago
0 TIANMU-1 07
1 57399U 23101A   26172.48254884  .00004853  00000-0  17043-3 0  9999
2 57399  97.2589 223.0524 0004274 112.8221 247.3472 15.29848940162308
Epoch: 2026-06-21T11:34Z
TLE epoch observation values (Epoch: 2026-06-21T11:34:52.219Z)
Latitude
-0.00001°
Longitude
139.65264°
Altitude
480.501 km
Speed
7.625 km/s
True Right ascension
14h 52m 12s
True Declination
0° 00' 00"
Sunlit
Object was in full shadow at epoch
Visualization orbit readout
Latitude
Unknown
Longitude
Unknown
Altitude
Unknown
Speed
Unknown
Apparent Right ascension
Unknown
Apparent Declination
Unknown
Sunlit
N/A
Visualization observer readout
Local Sidereal Time
21:33:51
Azimuth
Unknown
Elevation
Unknown
Doppler factor
Unknown
Orbital elements
Apogee altitude
476.138 km
Perigee altitude
470.282 km
Semi-major axis
6,851.347 km
Eccentricity
0.00043
Inclination
97.2589°
RAAN
223.0524°
Arg. of periapsis
112.8221°
True anomaly
247.30201°
Mean anomaly
247.3472°
Eccentric anomaly
247.3246°
Mean motion
3.82718 °/min
Orbital period
94.06 mins
BSTAR
0.00017043
Loading maneuver chart data...
Computing Atmospheric mass density...
Loading historical data...
Loading historical data...
Loading historical data...
Loading historical data...
Loading historical data...
Loading historical data...
Loading historical data...
Other satellites on launch #101 in the year 2023 (2023-07-20 UTC)

Documentation

Showing up to 5 results
|